Weather History for EGLC - March, 2013

Change the Weather History Date:

Saturday, March 30, 2013

  Actual Average Record
Temperature  
Mean Temperature 36 °F -  
Max Temperature 39 °F 54 °F - (-1)
Min Temperature 33 °F 44 °F - (-1)
Degree Days  
Heating Degree Days 29    
Moisture  
Dew Point 28 °F    
Average Humidity 74    
Maximum Humidity 81    
Minimum Humidity 56    
Precipitation  
Precipitation 0.00 in - - ()
Sea Level Pressure  
Sea Level Pressure 29.87 in    
Wind  
Wind Speed 6 mph ()    
Max Wind Speed 13 mph    
Max Gust Speed -    
Visibility 6.2 miles    
Events Rain    
Averages and records for this station are not official NWS values.
T = Trace of Precipitation, MM = Missing Value Source: Averaged Metar Reports

Daily Weather History Graph

Daily Weather History Graph

Search for Another Location

Airport or City:

Trip Planner

Search our weather history database for the weather conditions in past years. The results will help you decide how hot, cold, wet, or windy it might be!

Date:

Astronomy

Mar. 30, 2013 Rise Set
Actual Time 5:39 AM GMT 6:29 PM GMT
Civil Twilight 5:05 AM GMT 7:03 PM GMT
Nautical Twilight 4:25 AM GMT 7:44 PM GMT
Astronomical Twilight 3:42 AM GMT 8:27 PM GMT
Moon 10:49 PM GMT (3/30) 6:57 AM GMT (3/30)
Length of Visible Light 13h 58m
Length of Day
12h 50m
Waning Gibbous, 88% of the Moon is Illuminated
Mar 30
Waning Gibbous
Apr 3
Last Quarter
Apr 10
New
Apr 18
First Quarter
Apr 25
Full

Hourly Weather History & Observations

Time (GMT) Temp. Windchill Dew Point Humidity Pressure Visibility Wind Dir Wind Speed Gust Speed Precip Events Conditions
12:20 AM 33.8 °F 27.7 °F 28.4 °F 81% 29.80 in 6.2 mi NNE 6.9 mph - N/A   Overcast
12:50 AM 33.8 °F 27.0 °F 28.4 °F 81% 29.80 in 6.2 mi NNE 8.1 mph - N/A   Overcast
1:20 AM 33.8 °F 27.7 °F 28.4 °F 81% 29.80 in 6.2 mi NNE 6.9 mph - N/A   Overcast
1:50 AM 33.8 °F 27.7 °F 28.4 °F 81% 29.80 in 6.2 mi NNE 6.9 mph - N/A   Overcast
2:20 AM 33.8 °F 27.7 °F 28.4 °F 81% 29.80 in 6.2 mi NNE 6.9 mph - N/A   Overcast
2:50 AM 33.8 °F 28.6 °F 28.4 °F 81% 29.80 in 6.2 mi NNE 5.8 mph - N/A   Overcast
3:20 AM 33.8 °F 27.7 °F 28.4 °F 81% 29.80 in 6.2 mi NNE 6.9 mph - N/A   Overcast
3:50 AM 33.8 °F 28.6 °F 28.4 °F 81% 29.80 in 6.2 mi NNE 5.8 mph - N/A   Overcast
4:20 AM 33.8 °F 28.6 °F 28.4 °F 81% 29.80 in 6.2 mi NNE 5.8 mph - N/A   Overcast
4:50 AM 33.8 °F 28.6 °F 28.4 °F 81% 29.80 in 6.2 mi NNE 5.8 mph - N/A   Overcast
5:20 AM 33.8 °F 28.6 °F 28.4 °F 81% 29.83 in 6.2 mi NNE 5.8 mph - N/A   Overcast
5:50 AM 33.8 °F 28.6 °F 28.4 °F 81% 29.83 in 6.2 mi NE 5.8 mph - N/A   Overcast
6:20 AM 33.8 °F 27.7 °F 28.4 °F 81% 29.83 in 6.2 mi NNE 6.9 mph - N/A   Mostly Cloudy
6:50 AM 33.8 °F 27.0 °F 28.4 °F 81% 29.83 in 6.2 mi NNE 8.1 mph - N/A   Mostly Cloudy
7:20 AM 33.8 °F 27.0 °F 28.4 °F 81% 29.83 in 6.2 mi NNE 8.1 mph - N/A   Mostly Cloudy
7:50 AM 33.8 °F 26.4 °F 26.6 °F 75% 29.83 in 6.2 mi NNE 9.2 mph - N/A   Mostly Cloudy
8:20 AM 35.6 °F 29.2 °F 28.4 °F 75% 29.83 in 6.2 mi NNE 8.1 mph - N/A   Mostly Cloudy
8:50 AM 35.6 °F 28.6 °F 28.4 °F 75% 29.83 in 6.2 mi NE 9.2 mph - N/A   Unknown
9:20 AM 37.4 °F 30.8 °F 26.6 °F 65% 29.83 in 6.2 mi NNE 9.2 mph - N/A   Partly Cloudy
9:50 AM 37.4 °F 30.3 °F 26.6 °F 65% 29.83 in 6.2 mi NE 10.4 mph - N/A   Scattered Clouds
10:20 AM 37.4 °F 29.3 °F 26.6 °F 65% 29.86 in 6.2 mi ENE 12.7 mph - N/A   Mostly Cloudy
10:50 AM 39.2 °F 33.0 °F 26.6 °F 61% 29.86 in 6.2 mi NE 9.2 mph - N/A   Mostly Cloudy
11:20 AM 37.4 °F 29.8 °F 24.8 °F 60% 29.86 in 6.2 mi ENE 11.5 mph - N/A   Mostly Cloudy
11:50 AM 39.2 °F 33.0 °F 24.8 °F 56% 29.86 in 6.2 mi NNE 9.2 mph - N/A   Mostly Cloudy
12:20 PM 39.2 °F 33.0 °F 24.8 °F 56% 29.86 in 6.2 mi NNE 9.2 mph - N/A   Mostly Cloudy
12:50 PM 39.2 °F 32.5 °F 26.6 °F 61% 29.86 in 6.2 mi ENE 10.4 mph - N/A   Mostly Cloudy
1:20 PM 39.2 °F 33.6 °F 28.4 °F 65% 29.89 in 6.2 mi East 8.1 mph - N/A   Overcast
1:50 PM 39.2 °F 34.2 °F 26.6 °F 61% 29.86 in 6.2 mi NNE 6.9 mph - N/A   Partly Cloudy
2:20 PM 39.2 °F 33.0 °F 26.6 °F 61% 29.89 in 6.2 mi NE 9.2 mph - N/A Rain Light Rain
2:50 PM 39.2 °F 32.5 °F 30.2 °F 70% 29.89 in 6.2 mi North 10.4 mph - N/A   Mostly Cloudy
3:20 PM 39.2 °F 33.0 °F 28.4 °F 65% 29.89 in 6.2 mi ENE 9.2 mph - N/A   Mostly Cloudy
3:50 PM 39.2 °F 35.0 °F 28.4 °F 65% 29.89 in 6.2 mi North 5.8 mph - N/A   Scattered Clouds
4:20 PM 37.4 °F 31.4 °F 30.2 °F 75% 29.89 in 6.2 mi ENE 8.1 mph - N/A Rain Light Rain Showers
4:50 PM 37.4 °F 31.4 °F 30.2 °F 75% 29.89 in 6.2 mi East 8.1 mph - N/A   Partly Cloudy
5:20 PM 37.4 °F 32.1 °F 32.0 °F 81% 29.92 in 6.2 mi East 6.9 mph - N/A   Partly Cloudy
5:50 PM 37.4 °F 30.8 °F 32.0 °F 81% 29.92 in 6.2 mi ENE 9.2 mph - N/A Rain Light Rain
6:20 PM 37.4 °F 32.8 °F 30.2 °F 75% 29.92 in 6.2 mi ENE 5.8 mph - N/A   Partly Cloudy
6:50 PM 35.6 °F 30.7 °F 30.2 °F 81% 29.95 in 6.2 mi East 5.8 mph - N/A   Mostly Cloudy
7:20 PM 35.6 °F 31.7 °F 30.2 °F 81% 29.95 in 6.2 mi ENE 4.6 mph - N/A   Mostly Cloudy
7:50 PM 35.6 °F - 30.2 °F 81% 29.95 in 6.2 mi Variable 2.3 mph - N/A   Unknown
8:20 PM 35.6 °F - 28.4 °F 75% 29.95 in 6.2 mi Variable 2.3 mph - N/A   Unknown
8:50 PM 35.6 °F - 28.4 °F 75% 29.98 in 6.2 mi Variable 2.3 mph - N/A   Overcast
9:20 PM 35.6 °F - 26.6 °F 70% 29.98 in 6.2 mi Variable 2.3 mph - N/A   Unknown
9:50 PM 35.6 °F 32.8 °F 26.6 °F 70% 29.98 in 6.2 mi Variable 3.5 mph - N/A   Unknown
10:20 PM 33.8 °F 30.8 °F 26.6 °F 75% 29.98 in 6.2 mi Variable 3.5 mph - N/A   Unknown
10:50 PM 33.8 °F - 26.6 °F 75% 29.98 in 6.2 mi Variable 2.3 mph - N/A   Unknown
11:20 PM 33.8 °F - 26.6 °F 75% 29.98 in 6.2 mi Calm Calm - N/A   Unknown
11:50 PM 33.8 °F 29.6 °F 26.6 °F 75% 29.98 in 6.2 mi NNE 4.6 mph - N/A   Unknown